Weather History for The Dalles, OR

Change the Weather History Date:

Monday, July 7, 2014

  Actual Average Record
Temperature  
Mean Temperature 81 °F -  
Max Temperature 99 °F 85 °F 105 °F (1953)
Min Temperature 64 °F 56 °F 43 °F (1971)
Cooling Degree Days 16    
Growing Degree Days 31 (Base 50)    
Moisture  
Dew Point 58 °F    
Average Humidity 47    
Maximum Humidity 75    
Minimum Humidity 18    
Precipitation  
Precipitation 0.00 in - - ()
Sea Level Pressure  
Sea Level Pressure 29.96 in    
Wind  
Wind Speed 8 mph (NW)    
Max Wind Speed 18 mph    
Max Gust Speed 24 mph    
Visibility 10 miles    
Events      
Averages and records for this station are not official NWS values.
T = Trace of Precipitation, MM = Missing Value Source: NWS Daily Summary

Daily Weather History Graph

Daily Weather History Graph

Search for Another Location

Airport:

Trip Planner

Search our weather history database for the weather conditions in past years. The results will help you decide how hot, cold, wet, or windy it might be!

Date:

Astronomy

Jul. 07, 2014 Rise Set
Actual Time 5:23 AM PDT 8:55 PM PDT
Civil Twilight 4:46 AM PDT 9:32 PM PDT
Nautical Twilight 3:56 AM PDT 10:22 PM PDT
Astronomical Twilight 2:51 AM PDT 11:26 PM PDT
Moon 3:56 PM PDT (7/7) 1:29 AM PDT (7/7)
Length of Visible Light 16h 46m
Length of Day
15h 32m
Waxing Gibbous, 73% of the Moon is Illuminated
Jul 7
Waxing Gibbous
Jul 12
Full
Jul 18
Last Quarter
Jul 26
New
Aug 3
First Quarter

Hourly Weather History & Observations

Time (PDT) Temp. Heat Index Dew Point Humidity Pressure Visibility Wind Dir Wind Speed Gust Speed Precip Events Conditions
12:53 AM 75.9 °F - 57.9 °F 54% 30.01 in 10.0 mi NNW 5.8 mph - N/A   Clear
1:53 AM 75.0 °F - 57.9 °F 55% 30.01 in 10.0 mi Variable 6.9 mph - N/A   Clear
2:53 AM 73.0 °F - 60.1 °F 64% 30.01 in 10.0 mi NW 13.8 mph - N/A   Clear
3:53 AM 72.0 °F - 60.1 °F 66% 30.02 in 10.0 mi NW 12.7 mph 24.2 mph N/A   Clear
4:53 AM 66.9 °F - 57.9 °F 73% 30.03 in 10.0 mi South 3.5 mph - N/A   Clear
5:53 AM 64.9 °F - 57.0 °F 75% 30.05 in 10.0 mi East 6.9 mph - N/A   Clear
6:53 AM 69.1 °F - 59.0 °F 70% 30.06 in 10.0 mi NW 5.8 mph - N/A   Clear
7:53 AM 73.0 °F - 59.0 °F 61% 30.06 in 10.0 mi NNW 4.6 mph - N/A   Clear
8:53 AM 75.9 °F - 61.0 °F 60% 30.05 in 10.0 mi NNW 8.1 mph - N/A   Clear
9:53 AM 80.1 °F 80.9 °F 60.1 °F 50% 30.04 in 10.0 mi NNW 10.4 mph - N/A   Clear
10:53 AM 84.9 °F 84.4 °F 59.0 °F 41% 30.02 in 10.0 mi NW 6.9 mph - N/A   Clear
11:53 AM 90.0 °F 88.6 °F 57.0 °F 33% 29.99 in 10.0 mi Calm Calm - N/A   Clear
12:53 PM 91.0 °F 89.2 °F 55.9 °F 30% 29.96 in 10.0 mi North - - N/A   Clear
1:53 PM 93.0 °F 90.6 °F 53.1 °F 26% 29.94 in 10.0 mi Calm Calm - N/A   Clear
2:53 PM 97.0 °F - 46.9 °F 18% 29.91 in 10.0 mi WNW 5.8 mph - N/A   Clear
3:53 PM 98.1 °F - 48.0 °F 18% 29.89 in 10.0 mi NNW 6.9 mph - N/A   Clear
4:53 PM 98.1 °F 96.1 °F 54.0 °F 23% 29.87 in 10.0 mi NW 11.5 mph - N/A   Clear
5:53 PM 98.1 °F 96.4 °F 55.0 °F 24% 29.85 in 10.0 mi NW 10.4 mph - N/A   Clear
6:53 PM 91.9 °F 92.5 °F 62.1 °F 37% 29.85 in 10.0 mi NNW 16.1 mph - N/A   Clear
7:53 PM 88.0 °F 88.4 °F 62.1 °F 42% 29.85 in 10.0 mi NW 15.0 mph - N/A   Clear
8:53 PM 84.0 °F 84.5 °F 62.1 °F 47% 29.86 in 10.0 mi NW 12.7 mph - N/A   Clear
9:53 PM 82.9 °F 83.7 °F 62.1 °F 49% 29.87 in 10.0 mi NW 18.4 mph 23.0 mph N/A   Clear
10:53 PM 81.0 °F 81.9 °F 62.1 °F 52% 29.89 in 10.0 mi NW 13.8 mph - N/A   Clear
11:53 PM 79.0 °F - 62.1 °F 56% 29.89 in 10.0 mi NNW 15.0 mph 21.9 mph N/A   Clear